Time,TemperatureF,DewpointF,PressureIn,WindDirection,WindDirectionDegrees,WindSpeedMPH,WindSpeedGustMPH,Humidity,HourlyPrecipIn,Conditions,Clouds,dailyrainin,SoftwareType,DateUTC
2013-07-16 00:01:00,71.4,51.3,30.24,North,-999,0.0,0.0,49,0.00,,,0.00,pywws,2013-07-15 23:01:00,
2013-07-16 00:06:00,71.1,51.5,30.23,North,-999,0.0,0.0,50,0.00,,,0.00,pywws,2013-07-15 23:06:00,
2013-07-16 00:11:00,70.7,51.7,30.24,North,-999,0.0,0.0,51,0.00,,,0.00,pywws,2013-07-15 23:11:00,
2013-07-16 00:16:00,70.3,51.9,30.24,North,-999,0.0,0.0,52,0.00,,,0.00,pywws,2013-07-15 23:16:00,
2013-07-16 00:21:00,70.2,51.7,30.23,North,-999,0.0,0.0,52,0.00,,,0.00,pywws,2013-07-15 23:21:00,
2013-07-16 00:31:00,69.8,51.4,30.23,North,-999,0.0,0.0,52,0.00,,,0.00,pywws,2013-07-15 23:31:00,
2013-07-16 00:36:00,69.4,52.1,30.24,North,-999,0.0,0.0,54,0.00,,,0.00,pywws,2013-07-15 23:36:00,
2013-07-16 00:41:00,69.4,52.1,30.23,North,-999,0.0,0.0,54,0.00,,,0.00,pywws,2013-07-15 23:41:00,
2013-07-16 00:46:00,69.4,52.6,30.24,North,-999,0.0,0.0,55,0.00,,,0.00,pywws,2013-07-15 23:46:00,
2013-07-16 00:51:00,69.4,53.0,30.24,North,-999,0.0,0.0,56,0.00,,,0.00,pywws,2013-07-15 23:51:00,
2013-07-16 01:01:00,69.4,53.0,30.24,North,-999,0.0,0.0,56,0.00,,,0.00,pywws,2013-07-16 00:01:00,
2013-07-16 01:06:00,69.3,52.9,30.24,North,-999,0.0,0.0,56,0.00,,,0.00,pywws,2013-07-16 00:06:00,
2013-07-16 01:11:00,68.7,53.3,30.23,North,-999,0.0,0.0,58,0.00,,,0.00,pywws,2013-07-16 00:11:00,
2013-07-16 01:16:00,68.5,53.2,30.24,North,-999,0.0,0.0,58,0.00,,,0.00,pywws,2013-07-16 00:16:00,
2013-07-16 01:21:00,68.5,53.6,30.24,North,-999,0.0,0.0,59,0.00,,,0.00,pywws,2013-07-16 00:21:00,
2013-07-16 01:31:00,68.4,53.5,30.23,North,-999,0.0,0.0,59,0.00,,,0.00,pywws,2013-07-16 00:31:00,
2013-07-16 01:36:00,68.4,53.9,30.23,North,-999,0.0,0.0,60,0.00,,,0.00,pywws,2013-07-16 00:36:00,
2013-07-16 01:41:00,68.2,54.2,30.23,North,-999,0.0,0.0,61,0.00,,,0.00,pywws,2013-07-16 00:41:00,
2013-07-16 01:46:00,68.0,54.0,30.23,North,-999,0.0,0.0,61,0.00,,,0.00,pywws,2013-07-16 00:46:00,
2013-07-16 01:51:00,67.8,53.9,30.23,North,-999,0.0,0.0,61,0.00,,,0.00,pywws,2013-07-16 00:51:00,
2013-07-16 02:01:00,67.8,54.3,30.23,North,-999,0.0,0.0,62,0.00,,,0.00,pywws,2013-07-16 01:01:00,
2013-07-16 02:06:00,67.6,54.1,30.23,North,-999,0.0,0.0,62,0.00,,,0.00,pywws,2013-07-16 01:06:00,
2013-07-16 02:11:00,67.3,54.2,30.23,North,-999,0.0,0.0,63,0.00,,,0.00,pywws,2013-07-16 01:11:00,
2013-07-16 02:16:00,67.1,54.1,30.23,North,-999,0.0,0.0,63,0.00,,,0.00,pywws,2013-07-16 01:16:00,
2013-07-16 02:21:00,66.7,53.7,30.23,North,-999,0.0,0.0,63,0.00,,,0.00,pywws,2013-07-16 01:21:00,
2013-07-16 02:31:00,66.6,54.0,30.23,North,-999,0.0,0.0,64,0.00,,,0.00,pywws,2013-07-16 01:31:00,
2013-07-16 02:36:00,66.2,54.1,30.23,North,-999,0.0,0.0,65,0.00,,,0.00,pywws,2013-07-16 01:36:00,
2013-07-16 02:41:00,66.0,54.3,30.23,North,-999,0.0,0.0,66,0.00,,,0.00,pywws,2013-07-16 01:41:00,
2013-07-16 02:46:00,66.0,54.3,30.23,North,-999,0.0,0.0,66,0.00,,,0.00,pywws,2013-07-16 01:46:00,
2013-07-16 02:51:00,66.0,54.3,30.23,North,-999,0.0,0.0,66,0.00,,,0.00,pywws,2013-07-16 01:51:00,
2013-07-16 03:01:00,66.0,54.7,30.23,North,-999,0.0,0.0,67,0.00,,,0.00,pywws,2013-07-16 02:01:00,
2013-07-16 03:06:00,65.8,54.6,30.23,North,-999,0.0,1.6,67,0.00,,,0.00,pywws,2013-07-16 02:06:00,
2013-07-16 03:11:00,65.7,54.4,30.23,North,-999,0.0,1.6,67,0.00,,,0.00,pywws,2013-07-16 02:11:00,
2013-07-16 03:16:00,65.5,55.0,30.23,NW,315,0.7,2.2,69,0.00,,,0.00,pywws,2013-07-16 02:16:00,
2013-07-16 03:21:00,65.3,54.9,30.23,North,0,0.7,3.1,69,0.00,,,0.00,pywws,2013-07-16 02:21:00,
2013-07-16 03:31:00,64.9,54.5,30.23,North,-999,0.0,0.0,69,0.00,,,0.00,pywws,2013-07-16 02:31:00,
2013-07-16 03:36:00,64.6,54.6,30.23,North,-999,0.0,2.2,70,0.00,,,0.00,pywws,2013-07-16 02:36:00,
2013-07-16 03:41:00,64.6,54.6,30.23,North,-999,0.0,1.6,70,0.00,,,0.00,pywws,2013-07-16 02:41:00,
2013-07-16 03:46:00,64.6,54.2,30.22,North,-999,0.0,0.0,69,0.00,,,0.00,pywws,2013-07-16 02:46:00,
2013-07-16 03:51:00,64.4,54.4,30.23,North,-999,0.0,0.0,70,0.00,,,0.00,pywws,2013-07-16 02:51:00,
2013-07-16 04:01:00,64.4,54.4,30.23,North,-999,0.0,1.6,70,0.00,,,0.00,pywws,2013-07-16 03:01:00,
2013-07-16 04:06:00,64.4,54.4,30.23,North,-999,0.0,0.7,70,0.00,,,0.00,pywws,2013-07-16 03:06:00,
2013-07-16 04:11:00,64.2,54.2,30.23,North,-999,0.0,0.0,70,0.00,,,0.00,pywws,2013-07-16 03:11:00,
2013-07-16 04:16:00,64.2,54.2,30.23,North,-999,0.0,1.6,70,0.00,,,0.00,pywws,2013-07-16 03:16:00,
2013-07-16 04:21:00,64.0,54.1,30.23,North,-999,0.0,0.0,70,0.00,,,0.00,pywws,2013-07-16 03:21:00,
2013-07-16 04:31:00,64.0,54.1,30.23,North,-999,0.0,0.0,70,0.00,,,0.00,pywws,2013-07-16 03:31:00,
2013-07-16 04:36:00,64.0,54.4,30.23,North,0,0.7,1.6,71,0.00,,,0.00,pywws,2013-07-16 03:36:00,
2013-07-16 04:41:00,63.9,54.3,30.23,North,-999,0.0,0.0,71,0.00,,,0.00,pywws,2013-07-16 03:41:00,
2013-07-16 04:46:00,63.9,54.3,30.23,North,-999,0.0,0.0,71,0.00,,,0.00,pywws,2013-07-16 03:46:00,
2013-07-16 04:51:00,63.9,54.3,30.23,North,-999,0.0,0.0,71,0.00,,,0.00,pywws,2013-07-16 03:51:00,
2013-07-16 05:01:00,63.7,54.5,30.23,North,-999,0.0,0.7,72,0.00,,,0.00,pywws,2013-07-16 04:01:00,
2013-07-16 05:06:00,63.7,54.5,30.23,North,-999,0.0,1.6,72,0.00,,,0.00,pywws,2013-07-16 04:06:00,
2013-07-16 05:11:00,63.5,54.3,30.23,North,-999,0.0,0.0,72,0.00,,,0.00,pywws,2013-07-16 04:11:00,
2013-07-16 05:16:00,63.3,54.1,30.23,North,-999,0.0,0.0,72,0.00,,,0.00,pywws,2013-07-16 04:16:00,
2013-07-16 05:21:00,63.3,54.5,30.23,North,-999,0.0,0.7,73,0.00,,,0.00,pywws,2013-07-16 04:21:00,
2013-07-16 05:31:00,63.3,54.5,30.23,North,-999,0.0,1.6,73,0.00,,,0.00,pywws,2013-07-16 04:31:00,
2013-07-16 05:36:00,63.5,54.3,30.23,North,-999,0.0,0.0,72,0.00,,,0.00,pywws,2013-07-16 04:36:00,
2013-07-16 05:41:00,63.3,54.1,30.23,North,-999,0.0,1.6,72,0.00,,,0.00,pywws,2013-07-16 04:41:00,
2013-07-16 05:46:00,63.5,54.7,30.23,North,-999,0.0,0.0,73,0.00,,,0.00,pywws,2013-07-16 04:46:00,
2013-07-16 05:51:00,63.5,54.7,30.23,North,-999,0.0,0.0,73,0.00,,,0.00,pywws,2013-07-16 04:51:00,
2013-07-16 06:01:00,63.5,54.7,30.23,North,-999,0.0,0.0,73,0.00,,,0.00,pywws,2013-07-16 05:01:00,
2013-07-16 06:06:00,63.7,54.9,30.23,North,-999,0.0,0.0,73,0.00,,,0.00,pywws,2013-07-16 05:06:00,
2013-07-16 06:11:00,64.0,54.8,30.23,North,-999,0.0,1.6,72,0.00,,,0.00,pywws,2013-07-16 05:11:00,
2013-07-16 06:16:00,64.0,54.8,30.23,North,-999,0.0,1.6,72,0.00,,,0.00,pywws,2013-07-16 05:16:00,
2013-07-16 06:21:00,64.2,55.0,30.23,North,-999,0.0,0.0,72,0.00,,,0.00,pywws,2013-07-16 05:21:00,
2013-07-16 06:31:00,64.4,55.2,30.23,North,-999,0.0,0.7,72,0.00,,,0.00,pywws,2013-07-16 05:31:00,
2013-07-16 06:36:00,64.8,55.1,30.24,North,-999,0.0,2.2,71,0.00,,,0.00,pywws,2013-07-16 05:36:00,
2013-07-16 06:41:00,64.8,55.1,30.24,North,-999,0.0,0.7,71,0.00,,,0.00,pywws,2013-07-16 05:41:00,
2013-07-16 06:46:00,65.1,55.1,30.24,North,-999,0.0,0.0,70,0.00,,,0.00,pywws,2013-07-16 05:46:00,
2013-07-16 06:51:00,65.3,55.3,30.24,North,-999,0.0,1.6,70,0.00,,,0.00,pywws,2013-07-16 05:51:00,
2013-07-16 07:01:00,65.5,55.0,30.24,North,-999,0.0,0.7,69,0.00,,,0.00,pywws,2013-07-16 06:01:00,
2013-07-16 07:06:00,65.7,55.2,30.24,North,-999,0.0,0.0,69,0.00,,,0.00,pywws,2013-07-16 06:06:00,
2013-07-16 07:11:00,65.8,55.8,30.24,East,90,1.6,3.8,70,0.00,,,0.00,pywws,2013-07-16 06:11:00,
2013-07-16 07:16:00,65.8,55.8,30.24,NW,315,0.7,5.4,70,0.00,,,0.00,pywws,2013-07-16 06:16:00,
2013-07-16 07:21:00,66.0,56.3,30.24,NE,45,0.7,1.6,71,0.00,,,0.00,pywws,2013-07-16 06:21:00,
2013-07-16 07:31:00,66.2,56.5,30.24,East,90,1.6,3.8,71,0.00,,,0.00,pywws,2013-07-16 06:31:00,
2013-07-16 07:36:00,66.4,56.7,30.24,North,0,0.7,3.8,71,0.00,,,0.00,pywws,2013-07-16 06:36:00,
2013-07-16 07:41:00,66.7,57.0,30.24,West,270,0.7,2.2,71,0.00,,,0.00,pywws,2013-07-16 06:41:00,
2013-07-16 07:46:00,66.9,57.2,30.24,North,-999,0.0,0.7,71,0.00,,,0.00,pywws,2013-07-16 06:46:00,
2013-07-16 07:51:00,67.3,57.5,30.25,North,-999,0.0,2.2,71,0.00,,,0.00,pywws,2013-07-16 06:51:00,
2013-07-16 08:01:00,67.5,57.3,30.25,NW,315,1.6,3.8,70,0.00,,,0.00,pywws,2013-07-16 07:01:00,
2013-07-16 08:06:00,67.8,57.7,30.25,North,-999,0.0,1.6,70,0.00,,,0.00,pywws,2013-07-16 07:06:00,
2013-07-16 08:11:00,68.5,58.0,30.25,North,-999,0.0,0.0,69,0.00,,,0.00,pywws,2013-07-16 07:11:00,
2013-07-16 08:16:00,69.1,58.1,30.26,North,0,0.7,3.1,68,0.00,,,0.00,pywws,2013-07-16 07:16:00,
2013-07-16 08:21:00,69.1,57.7,30.26,North,-999,0.0,1.6,67,0.00,,,0.00,pywws,2013-07-16 07:21:00,
2013-07-16 08:31:00,69.4,57.6,30.26,North,0,1.6,3.1,66,0.00,,,0.00,pywws,2013-07-16 07:31:00,
2013-07-16 08:36:00,70.7,57.9,30.25,North,-999,0.0,1.6,64,0.00,,,0.00,pywws,2013-07-16 07:36:00,
2013-07-16 08:41:00,70.7,57.9,30.25,North,-999,0.0,2.2,64,0.00,,,0.00,pywws,2013-07-16 07:41:00,
2013-07-16 08:46:00,71.4,58.6,30.25,North,-999,0.0,0.0,64,0.00,,,0.00,pywws,2013-07-16 07:46:00,
2013-07-16 08:51:00,72.5,58.7,30.26,North,-999,0.0,1.6,62,0.00,,,0.00,pywws,2013-07-16 07:51:00,
2013-07-16 09:01:00,73.2,58.5,30.25,North,-999,0.0,1.6,60,0.00,,,0.00,pywws,2013-07-16 08:01:00,
2013-07-16 09:06:00,73.6,58.4,30.25,North,0,0.7,3.1,59,0.00,,,0.00,pywws,2013-07-16 08:06:00,
2013-07-16 09:11:00,75.6,59.7,30.25,North,-999,0.0,0.0,58,0.00,,,0.00,pywws,2013-07-16 08:11:00,
2013-07-16 09:16:00,76.8,59.4,30.25,North,-999,0.0,1.6,55,0.00,,,0.00,pywws,2013-07-16 08:16:00,
2013-07-16 09:21:00,77.5,59.6,30.25,North,-999,0.0,0.7,54,0.00,,,0.00,pywws,2013-07-16 08:21:00,
2013-07-16 09:31:00,79.2,60.0,30.25,North,-999,0.0,1.6,52,0.00,,,0.00,pywws,2013-07-16 08:31:00,
2013-07-16 09:36:00,79.9,59.0,30.25,NW,315,0.7,2.2,49,0.00,,,0.00,pywws,2013-07-16 08:36:00,
2013-07-16 09:41:00,79.5,59.2,30.25,North,-999,0.0,0.7,50,0.00,,,0.00,pywws,2013-07-16 08:41:00,
2013-07-16 09:46:00,80.4,59.5,30.25,North,-999,0.0,1.6,49,0.00,,,0.00,pywws,2013-07-16 08:46:00,
2013-07-16 09:51:00,81.5,59.9,30.24,North,-999,0.0,0.7,48,0.00,,,0.00,pywws,2013-07-16 08:51:00,
2013-07-16 10:01:00,83.1,59.5,30.25,North,-999,0.0,0.0,45,0.00,,,0.00,pywws,2013-07-16 09:01:00,
2013-07-16 10:05:00,84.9,58.6,30.25,North,0,0.7,3.8,41,0.00,,,0.00,pywws,2013-07-16 09:05:00,
2013-07-16 10:10:00,82.8,58.6,30.25,North,-999,0.0,1.6,44,0.00,,,0.00,pywws,2013-07-16 09:10:00,
2013-07-16 10:15:00,83.7,59.4,30.24,North,-999,0.0,0.7,44,0.00,,,0.00,pywws,2013-07-16 09:15:00,
2013-07-16 10:20:00,85.5,59.0,30.25,North,-999,0.0,1.6,41,0.00,,,0.00,pywws,2013-07-16 09:20:00,
2013-07-16 10:31:00,86.4,59.8,30.24,North,-999,0.0,0.7,41,0.00,,,0.00,pywws,2013-07-16 09:31:00,
2013-07-16 10:36:00,87.1,58.4,30.24,North,-999,0.0,1.6,38,0.00,,,0.00,pywws,2013-07-16 09:36:00,
2013-07-16 10:41:00,87.6,58.8,30.24,North,-999,0.0,1.6,38,0.00,,,0.00,pywws,2013-07-16 09:41:00,
2013-07-16 10:46:00,88.0,57.6,30.24,NW,315,0.7,2.2,36,0.00,,,0.00,pywws,2013-07-16 09:46:00,
2013-07-16 10:51:00,87.8,57.5,30.24,North,-999,0.7,2.2,36,0.00,,,0.00,pywws,2013-07-16 09:51:00,
2013-07-16 11:01:00,88.2,57.8,30.24,North,-999,0.0,0.7,36,0.00,,,0.00,pywws,2013-07-16 10:01:00,
2013-07-16 11:06:00,89.1,57.8,30.24,North,-999,0.0,0.0,35,0.00,,,0.00,pywws,2013-07-16 10:06:00,
2013-07-16 11:11:00,87.6,56.5,30.24,North,-999,0.0,1.6,35,0.00,,,0.00,pywws,2013-07-16 10:11:00,
2013-07-16 11:16:00,86.2,57.6,30.24,North,-999,0.0,0.0,38,0.00,,,0.00,pywws,2013-07-16 10:16:00,
2013-07-16 11:21:00,85.6,56.3,30.24,North,-999,0.0,0.7,37,0.00,,,0.00,pywws,2013-07-16 10:21:00,
2013-07-16 11:31:00,85.6,57.8,30.24,North,-999,0.0,0.0,39,0.00,,,0.00,pywws,2013-07-16 10:31:00,
2013-07-16 11:36:00,85.3,58.2,30.24,North,-999,0.0,0.0,40,0.00,,,0.00,pywws,2013-07-16 10:36:00,
2013-07-16 11:41:00,85.3,57.5,30.24,North,-999,0.0,1.6,39,0.00,,,0.00,pywws,2013-07-16 10:41:00,
2013-07-16 11:46:00,85.3,58.2,30.24,North,-999,0.0,1.6,40,0.00,,,0.00,pywws,2013-07-16 10:46:00,
2013-07-16 11:51:00,84.4,57.4,30.24,North,-999,0.0,0.7,40,0.00,,,0.00,pywws,2013-07-16 10:51:00,
2013-07-16 12:01:00,84.9,57.9,30.24,North,-999,0.0,0.0,40,0.00,,,0.00,pywws,2013-07-16 11:01:00,
2013-07-16 12:06:00,85.3,57.5,30.23,North,-999,0.0,2.2,39,0.00,,,0.00,pywws,2013-07-16 11:06:00,
2013-07-16 12:11:00,86.4,57.0,30.23,North,-999,0.0,1.6,37,0.00,,,0.00,pywws,2013-07-16 11:11:00,
2013-07-16 12:16:00,86.7,57.3,30.23,North,-999,0.0,0.7,37,0.00,,,0.00,pywws,2013-07-16 11:16:00,
2013-07-16 12:21:00,86.4,56.2,30.23,North,-999,0.0,0.7,36,0.00,,,0.00,pywws,2013-07-16 11:21:00,
2013-07-16 12:31:00,86.4,56.2,30.23,North,-999,0.0,1.6,36,0.00,,,0.00,pywws,2013-07-16 11:31:00,
2013-07-16 12:36:00,86.0,56.7,30.23,West,270,0.7,2.2,37,0.00,,,0.00,pywws,2013-07-16 11:36:00,
2013-07-16 12:41:00,86.2,57.6,30.23,North,-999,0.0,0.7,38,0.00,,,0.00,pywws,2013-07-16 11:41:00,
2013-07-16 12:46:00,85.8,56.5,30.23,West,270,1.6,4.5,37,0.00,,,0.00,pywws,2013-07-16 11:46:00,
2013-07-16 12:51:00,85.6,57.1,30.23,North,-999,0.0,1.6,38,0.00,,,0.00,pywws,2013-07-16 11:51:00,
2013-07-16 13:01:00,85.5,56.2,30.22,NW,315,2.2,4.5,37,0.00,,,0.00,pywws,2013-07-16 12:01:00,
2013-07-16 13:06:00,85.1,56.6,30.22,North,-999,0.0,0.7,38,0.00,,,0.00,pywws,2013-07-16 12:06:00,
2013-07-16 13:11:00,85.6,57.1,30.22,North,-999,0.0,0.0,38,0.00,,,0.00,pywws,2013-07-16 12:11:00,
2013-07-16 13:16:00,86.4,56.2,30.22,North,-999,0.0,0.7,36,0.00,,,0.00,pywws,2013-07-16 12:16:00,
2013-07-16 13:21:00,86.4,56.2,30.22,North,-999,0.0,3.1,36,0.00,,,0.00,pywws,2013-07-16 12:21:00,
2013-07-16 13:31:00,86.5,57.1,30.22,North,-999,0.0,0.7,37,0.00,,,0.00,pywws,2013-07-16 12:31:00,
2013-07-16 13:36:00,86.7,55.0,30.22,North,-999,0.0,0.7,34,0.00,,,0.00,pywws,2013-07-16 12:36:00,
2013-07-16 13:41:00,86.7,54.1,30.22,NE,45,0.7,2.2,33,0.00,,,0.00,pywws,2013-07-16 12:41:00,
2013-07-16 13:46:00,86.4,54.6,30.22,North,-999,0.0,2.2,34,0.00,,,0.00,pywws,2013-07-16 12:46:00,
2013-07-16 13:51:00,86.2,53.7,30.22,North,-999,0.0,3.8,33,0.00,,,0.00,pywws,2013-07-16 12:51:00,
2013-07-16 14:01:00,86.4,54.6,30.22,North,-999,0.0,2.2,34,0.00,,,0.00,pywws,2013-07-16 13:01:00,
2013-07-16 14:06:00,86.7,55.0,30.22,North,-999,0.0,1.6,34,0.00,,,0.00,pywws,2013-07-16 13:06:00,
2013-07-16 14:11:00,86.4,53.0,30.22,North,-999,0.0,1.6,32,0.00,,,0.00,pywws,2013-07-16 13:11:00,
2013-07-16 14:16:00,86.4,53.8,30.22,NW,315,0.7,2.2,33,0.00,,,0.00,pywws,2013-07-16 13:16:00,
2013-07-16 14:21:00,86.5,54.0,30.22,West,270,2.2,6.0,33,0.00,,,0.00,pywws,2013-07-16 13:21:00,
2013-07-16 14:31:00,86.5,53.1,30.22,NW,315,2.2,6.0,32,0.00,,,0.00,pywws,2013-07-16 13:31:00,
2013-07-16 14:36:00,86.2,53.7,30.21,SW,225,0.7,2.2,33,0.00,,,0.00,pywws,2013-07-16 13:36:00,
2013-07-16 14:41:00,86.4,53.8,30.22,North,-999,0.0,3.1,33,0.00,,,0.00,pywws,2013-07-16 13:41:00,
2013-07-16 14:46:00,86.4,55.4,30.22,North,-999,0.0,1.6,35,0.00,,,0.00,pywws,2013-07-16 13:46:00,
2013-07-16 14:51:00,86.5,54.8,30.21,North,-999,0.0,0.7,34,0.00,,,0.00,pywws,2013-07-16 13:51:00,
2013-07-16 15:01:00,86.5,54.0,30.22,North,-999,0.0,1.6,33,0.00,,,0.00,pywws,2013-07-16 14:01:00,
2013-07-16 15:06:00,86.4,53.0,30.21,NW,315,2.2,4.5,32,0.00,,,0.00,pywws,2013-07-16 14:06:00,
2013-07-16 15:11:00,86.7,54.1,30.21,North,-999,0.0,1.6,33,0.00,,,0.00,pywws,2013-07-16 14:11:00,
2013-07-16 15:16:00,86.9,54.3,30.21,North,-999,0.0,0.0,33,0.00,,,0.00,pywws,2013-07-16 14:16:00,
2013-07-16 15:21:00,87.1,53.6,30.21,North,-999,0.0,3.8,32,0.00,,,0.00,pywws,2013-07-16 14:21:00,
2013-07-16 15:31:00,87.1,53.6,30.21,North,-999,0.0,1.6,32,0.00,,,0.00,pywws,2013-07-16 14:31:00,
2013-07-16 15:36:00,86.7,55.8,30.21,North,-999,0.0,0.0,35,0.00,,,0.00,pywws,2013-07-16 14:36:00,
2013-07-16 15:41:00,87.1,54.5,30.21,NE,45,0.7,2.2,33,0.00,,,0.00,pywws,2013-07-16 14:41:00,
2013-07-16 15:46:00,86.7,55.8,30.21,North,-999,0.0,0.7,35,0.00,,,0.00,pywws,2013-07-16 14:46:00,
2013-07-16 15:51:00,86.7,55.8,30.21,North,-999,0.0,0.0,35,0.00,,,0.00,pywws,2013-07-16 14:51:00,
2013-07-16 16:01:00,86.9,55.1,30.21,North,-999,0.0,1.6,34,0.00,,,0.00,pywws,2013-07-16 15:01:00,
2013-07-16 16:06:00,86.7,55.0,30.20,North,0,1.6,3.1,34,0.00,,,0.00,pywws,2013-07-16 15:06:00,
2013-07-16 16:11:00,86.4,54.6,30.20,North,-999,0.0,1.6,34,0.00,,,0.00,pywws,2013-07-16 15:11:00,
2013-07-16 16:16:00,86.5,54.8,30.20,North,-999,0.0,0.0,34,0.00,,,0.00,pywws,2013-07-16 15:16:00,
2013-07-16 16:21:00,79.5,48.7,30.20,North,-999,0.0,2.2,34,0.00,,,0.00,pywws,2013-07-16 15:21:00,
2013-07-16 16:31:00,87.1,54.5,30.20,West,270,0.7,3.1,33,0.00,,,0.00,pywws,2013-07-16 15:31:00,
2013-07-16 16:36:00,86.7,55.0,30.20,NW,315,0.7,3.1,34,0.00,,,0.00,pywws,2013-07-16 15:36:00,
2013-07-16 16:41:00,86.5,54.8,30.20,North,0,0.7,2.2,34,0.00,,,0.00,pywws,2013-07-16 15:41:00,
2013-07-16 16:46:00,86.4,55.4,30.20,North,-999,0.0,2.2,35,0.00,,,0.00,pywws,2013-07-16 15:46:00,
2013-07-16 16:51:00,86.9,55.1,30.20,NW,315,1.6,4.5,34,0.00,,,0.00,pywws,2013-07-16 15:51:00,
2013-07-16 17:01:00,87.1,54.5,30.20,NW,315,0.7,3.1,33,0.00,,,0.00,pywws,2013-07-16 16:01:00,
2013-07-16 17:06:00,87.4,54.8,30.19,North,-999,0.0,0.7,33,0.00,,,0.00,pywws,2013-07-16 16:06:00,
2013-07-16 17:11:00,87.6,54.9,30.19,West,270,0.7,3.8,33,0.00,,,0.00,pywws,2013-07-16 16:11:00,
2013-07-16 17:16:00,87.4,55.6,30.19,North,-999,0.0,0.7,34,0.00,,,0.00,pywws,2013-07-16 16:16:00,
2013-07-16 17:21:00,87.6,54.1,30.19,SW,225,1.6,3.8,32,0.00,,,0.00,pywws,2013-07-16 16:21:00,
2013-07-16 17:31:00,87.4,55.6,30.19,North,-999,0.0,0.0,34,0.00,,,0.00,pywws,2013-07-16 16:31:00,
2013-07-16 17:36:00,87.4,56.4,30.19,West,270,0.7,3.1,35,0.00,,,0.00,pywws,2013-07-16 16:36:00,
2013-07-16 17:41:00,87.4,55.6,30.19,North,-999,0.0,2.2,34,0.00,,,0.00,pywws,2013-07-16 16:41:00,
2013-07-16 17:46:00,87.3,56.2,30.19,North,-999,0.0,0.7,35,0.00,,,0.00,pywws,2013-07-16 16:46:00,
2013-07-16 17:51:00,87.3,56.2,30.19,North,-999,0.0,3.1,35,0.00,,,0.00,pywws,2013-07-16 16:51:00,
2013-07-16 18:01:00,87.3,56.2,30.18,North,-999,0.0,0.7,35,0.00,,,0.00,pywws,2013-07-16 17:01:00,
2013-07-16 18:06:00,87.1,56.1,30.19,North,-999,0.0,0.7,35,0.00,,,0.00,pywws,2013-07-16 17:06:00,
2013-07-16 18:11:00,87.1,56.1,30.19,North,-999,0.0,0.0,35,0.00,,,0.00,pywws,2013-07-16 17:11:00,
2013-07-16 18:16:00,87.3,55.4,30.19,North,-999,0.0,2.2,34,0.00,,,0.00,pywws,2013-07-16 17:16:00,
2013-07-16 18:21:00,87.1,55.3,30.19,North,-999,0.0,0.7,34,0.00,,,0.00,pywws,2013-07-16 17:21:00,
2013-07-16 18:31:00,87.1,55.3,30.19,North,-999,0.0,0.7,34,0.00,,,0.00,pywws,2013-07-16 17:31:00,
2013-07-16 18:36:00,86.5,54.8,30.19,West,270,0.7,3.1,34,0.00,,,0.00,pywws,2013-07-16 17:36:00,
2013-07-16 18:41:00,86.5,55.6,30.19,West,270,0.7,3.1,35,0.00,,,0.00,pywws,2013-07-16 17:41:00,
2013-07-16 18:46:00,86.7,56.5,30.19,North,-999,0.0,0.0,36,0.00,,,0.00,pywws,2013-07-16 17:46:00,
2013-07-16 18:51:00,87.4,55.6,30.19,North,-999,0.0,0.7,34,0.00,,,0.00,pywws,2013-07-16 17:51:00,
2013-07-16 19:01:00,87.3,55.4,30.19,North,-999,0.0,0.7,34,0.00,,,0.00,pywws,2013-07-16 18:01:00,
2013-07-16 19:06:00,87.3,55.4,30.19,North,-999,0.0,0.7,34,0.00,,,0.00,pywws,2013-07-16 18:06:00,
2013-07-16 19:11:00,87.6,54.1,30.19,NE,45,0.7,3.1,32,0.00,,,0.00,pywws,2013-07-16 18:11:00,
2013-07-16 19:16:00,86.9,53.5,30.19,SW,225,0.7,4.5,32,0.00,,,0.00,pywws,2013-07-16 18:16:00,
2013-07-16 19:21:00,86.4,53.8,30.19,North,-999,0.0,2.2,33,0.00,,,0.00,pywws,2013-07-16 18:21:00,
2013-07-16 19:31:00,86.0,53.5,30.19,North,-999,0.0,1.6,33,0.00,,,0.00,pywws,2013-07-16 18:31:00,
2013-07-16 19:36:00,85.6,54.0,30.19,North,-999,0.0,0.7,34,0.00,,,0.00,pywws,2013-07-16 18:36:00,
2013-07-16 19:41:00,85.1,53.5,30.19,North,-999,0.0,0.0,34,0.00,,,0.00,pywws,2013-07-16 18:41:00,
2013-07-16 19:46:00,84.9,52.6,30.19,North,-999,0.0,2.2,33,0.00,,,0.00,pywws,2013-07-16 18:46:00,
2013-07-16 19:51:00,84.6,53.1,30.19,North,-999,0.0,0.7,34,0.00,,,0.00,pywws,2013-07-16 18:51:00,
2013-07-16 20:01:00,84.0,53.4,30.19,North,-999,0.0,0.0,35,0.00,,,0.00,pywws,2013-07-16 19:01:00,
2013-07-16 20:05:00,83.8,52.4,30.19,SE,135,0.7,1.6,34,0.00,,,0.00,pywws,2013-07-16 19:05:00,
2013-07-16 20:10:00,83.1,53.4,30.19,North,-999,0.0,2.2,36,0.00,,,0.00,pywws,2013-07-16 19:10:00,
2013-07-16 20:15:00,82.9,53.2,30.19,North,-999,0.0,0.0,36,0.00,,,0.00,pywws,2013-07-16 19:15:00,
2013-07-16 20:20:00,82.6,54.4,30.19,North,-999,0.0,0.7,38,0.00,,,0.00,pywws,2013-07-16 19:20:00,
2013-07-16 20:31:00,82.4,54.9,30.19,North,-999,0.0,0.7,39,0.00,,,0.00,pywws,2013-07-16 19:31:00,
2013-07-16 20:36:00,81.9,57.1,30.19,North,-999,0.0,1.6,43,0.00,,,0.00,pywws,2013-07-16 19:36:00,
2013-07-16 20:41:00,81.5,56.8,30.19,North,0,0.7,1.6,43,0.00,,,0.00,pywws,2013-07-16 19:41:00,
2013-07-16 20:46:00,81.3,57.3,30.19,North,-999,0.0,2.2,44,0.00,,,0.00,pywws,2013-07-16 19:46:00,
2013-07-16 20:51:00,81.3,57.3,30.20,North,-999,0.0,0.7,44,0.00,,,0.00,pywws,2013-07-16 19:51:00,
2013-07-16 21:01:00,81.1,57.8,30.20,North,0,0.7,2.2,45,0.00,,,0.00,pywws,2013-07-16 20:01:00,
2013-07-16 21:06:00,81.0,57.6,30.20,North,-999,0.0,0.0,45,0.00,,,0.00,pywws,2013-07-16 20:06:00,
2013-07-16 21:11:00,80.1,58.0,30.20,North,-999,0.0,0.0,47,0.00,,,0.00,pywws,2013-07-16 20:11:00,
2013-07-16 21:16:00,79.7,57.1,30.20,North,-999,0.0,0.0,46,0.00,,,0.00,pywws,2013-07-16 20:16:00,
2013-07-16 21:21:00,79.2,56.0,30.20,North,-999,0.0,0.0,45,0.00,,,0.00,pywws,2013-07-16 20:21:00,
2013-07-16 21:31:00,79.0,55.2,30.20,North,-999,0.0,0.0,44,0.00,,,0.00,pywws,2013-07-16 20:31:00,
2013-07-16 21:35:00,78.3,55.2,30.22,North,-999,0.0,0.0,45,0.00,,,0.00,pywws,2013-07-16 20:35:00,
2013-07-16 21:40:00,77.9,54.8,30.21,North,-999,0.0,0.7,45,0.00,,,0.00,pywws,2013-07-16 20:40:00,
2013-07-16 21:45:00,77.5,54.5,30.21,North,-999,0.0,3.1,45,0.00,,,0.00,pywws,2013-07-16 20:45:00,
2013-07-16 21:50:00,77.5,55.1,30.21,North,-999,0.0,0.7,46,0.00,,,0.00,pywws,2013-07-16 20:50:00,
2013-07-16 22:01:00,77.2,55.4,30.22,North,-999,0.0,0.7,47,0.00,,,0.00,pywws,2013-07-16 21:01:00,
2013-07-16 22:05:00,77.0,55.2,30.21,North,-999,0.0,1.6,47,0.00,,,0.00,pywws,2013-07-16 21:05:00,
2013-07-16 22:10:00,76.8,55.0,30.21,North,-999,0.0,0.0,47,0.00,,,0.00,pywws,2013-07-16 21:10:00,
2013-07-16 22:15:00,76.8,55.0,30.22,North,-999,0.0,0.7,47,0.00,,,0.00,pywws,2013-07-16 21:15:00,
2013-07-16 22:20:00,76.6,54.9,30.21,North,-999,0.0,0.0,47,0.00,,,0.00,pywws,2013-07-16 21:20:00,
2013-07-16 22:31:00,76.5,54.7,30.22,North,-999,0.0,0.0,47,0.00,,,0.00,pywws,2013-07-16 21:31:00,
2013-07-16 22:36:00,75.9,54.8,30.22,North,-999,0.0,0.0,48,0.00,,,0.00,pywws,2013-07-16 21:36:00,
2013-07-16 22:41:00,75.7,55.2,30.22,North,-999,0.0,0.0,49,0.00,,,0.00,pywws,2013-07-16 21:41:00,
2013-07-16 22:46:00,75.4,54.9,30.22,North,-999,0.0,0.0,49,0.00,,,0.00,pywws,2013-07-16 21:46:00,
2013-07-16 22:51:00,75.0,54.5,30.22,North,-999,0.0,0.0,49,0.00,,,0.00,pywws,2013-07-16 21:51:00,
2013-07-16 23:01:00,74.8,54.9,30.22,North,-999,0.0,0.0,50,0.00,,,0.00,pywws,2013-07-16 22:01:00,
2013-07-16 23:06:00,74.8,54.9,30.22,North,-999,0.0,0.0,50,0.00,,,0.00,pywws,2013-07-16 22:06:00,
2013-07-16 23:11:00,74.5,54.6,30.23,North,-999,0.0,0.0,50,0.00,,,0.00,pywws,2013-07-16 22:11:00,
2013-07-16 23:16:00,74.3,55.0,30.23,North,-999,0.0,0.0,51,0.00,,,0.00,pywws,2013-07-16 22:16:00,
2013-07-16 23:21:00,73.9,55.2,30.22,North,-999,0.0,0.0,52,0.00,,,0.00,pywws,2013-07-16 22:21:00,
2013-07-16 23:31:00,73.6,54.9,30.22,North,-999,0.0,0.0,52,0.00,,,0.00,pywws,2013-07-16 22:31:00,
2013-07-16 23:36:00,73.0,54.9,30.23,North,-999,0.0,0.0,53,0.00,,,0.00,pywws,2013-07-16 22:36:00,
2013-07-16 23:41:00,72.9,54.7,30.23,North,-999,0.0,0.0,53,0.00,,,0.00,pywws,2013-07-16 22:41:00,
2013-07-16 23:46:00,72.5,54.9,30.22,North,-999,0.0,0.0,54,0.00,,,0.00,pywws,2013-07-16 22:46:00,
2013-07-16 23:51:00,72.3,54.7,30.22,North,-999,0.0,0.0,54,0.00,,,0.00,pywws,2013-07-16 22:51:00,